Location: Albany
(35.0000°S, 118.0000°E)
Time: 14:57:34
(UTC-04:00)

Amateur Radio Satellites - All Passes

Search period start: 27 August 2014 14:27
Search period end: 28 August 2014 14:27
Location: Albany, 35.0000°S, 118.0000°E

Satellite Date Start Highest point End Downlink Frequencies (MHz)
Time Altitude Azimuth
RS-15 27 Aug 14:35:10 14:44:00 22° 150° (SSE) 14:52:35 29.354 - 29.394 USB, Beacon 29.352 USB
Uosat F 27 Aug 14:40:00 14:43:39 21° 114° (ESE) 14:47:21 435.120 FM
TMSAT-1 27 Aug 14:46:38 14:51:54 63° 281° (W) 14:57:14 436.925 FM
PANSAT 27 Aug 14:53:41 14:57:09 31° 359° (N) 15:00:38 not established
ITAMSAT 1 27 Aug 15:00:03 15:02:49 14° 272° (W) 15:05:37 435.822 SSB
JAS-1B 27 Aug 15:05:11 15:09:22 21° 272° (W) 15:13:47 435.800 - 435.900 CW/SSB
Gurwin Techsat 1B 27 Aug 15:34:59 15:38:08 16° 272° (W) 15:41:20 435.225 FM
Sapphire 27 Aug 15:37:08 15:39:09 12° 78° (ENE) 15:41:10 437.095 MHz 1200 baud AX-25 AFSK
UOSAT-12 27 Aug 15:49:23 15:53:21 33° 293° (WNW) 15:57:20 437.025 FM, 437.400 FM
OPAL 27 Aug 15:51:24 15:55:29 25° 82° (E) 15:59:32 ?
AO-7 27 Aug 15:52:22 16:00:40 77° 286° (WNW) 16:09:05 29.400 - 29.500 MHz
JAS-2 27 Aug 15:59:59 16:04:25 19° 121° (ESE) 16:09:10 435.800 - 435.900 CW/SSB, 435.910 FM
PCSat 27 Aug 16:04:17 16:08:41 26° 73° (ENE) 16:13:08 145.825 MHz
Uosat F 27 Aug 16:17:23 16:22:06 40° 279° (W) 16:26:55 435.120 FM
PANSAT 27 Aug 16:33:56 16:36:54 21° 346° (NNW) 16:39:53 not established
Hamsat 27 Aug 16:34:50 16:38:12 23° 110° (ESE) 16:41:35 145.90 MHz
RS-15 27 Aug 16:47:12 16:59:21 69° 123° (ESE) 17:10:50 29.354 - 29.394 USB, Beacon 29.352 USB
ISS 27 Aug 17:10:18 17:12:49 19° 149° (SSE) 17:15:19 145.800 FM
Sapphire 27 Aug 17:16:27 17:21:51 73° 243° (WSW) 17:27:19 437.095 MHz 1200 baud AX-25 AFSK
OPAL 27 Aug 17:29:57 17:34:20 31° 248° (WSW) 17:38:41 ?
JAS-2 27 Aug 17:42:07 17:48:28 73° 281° (WNW) 17:55:47 435.800 - 435.900 CW/SSB, 435.910 FM
PCSat 27 Aug 17:46:55 17:51:53 37° 237° (WSW) 17:56:54 145.825 MHz
AO-7 27 Aug 17:52:04 17:54:32 11° 270° (W) 17:57:00 29.400 - 29.500 MHz
Hamsat 27 Aug 18:10:32 18:14:02 25° 276° (W) 18:17:33 145.90 MHz
SO-67 27 Aug 18:19:37 18:22:59 49° 104° (ESE) 18:26:25 435.3500 MHz FM
ISS 27 Aug 18:46:27 18:49:44 46° 313° (NW) 18:52:59 145.800 FM
RS-15 27 Aug 19:01:04 19:10:44 30° 283° (WNW) 19:20:04 29.354 - 29.394 USB, Beacon 29.352 USB
Sapphire 27 Aug 19:05:30 19:06:14 10° 225° (SW) 19:06:58 437.095 MHz 1200 baud AX-25 AFSK
STRAND 1 27 Aug 19:07:13 19:12:27 79° 255° (WSW) 19:17:36 ?
HO-68 27 Aug 19:28:19 19:34:40 35° 115° (ESE) 19:41:04 435.675 MHz FM
UKube-1 27 Aug 19:42:28 19:44:49 14° 114° (ESE) 19:47:11 145.840 MHz, 145.915 MHz
Oscar 11 27 Aug 19:53:47 19:54:43 11° 115° (ESE) 19:55:39 145.825 FM, Beacon 2401.500 USB
HO-68 27 Aug 21:15:32 21:22:10 40° 279° (W) 21:28:54 435.675 MHz FM
UKube-1 27 Aug 21:16:24 21:20:35 45° 280° (W) 21:24:51 145.840 MHz, 145.915 MHz
Oscar 11 27 Aug 21:26:01 21:30:20 61° 281° (W) 21:34:42 145.825 FM, Beacon 2401.500 USB
FUNcube-1 27 Aug 21:42:11 21:46:49 75° 104° (ESE) 21:51:28 145.950 - 145.970 MHz USB
MaSat-1 27 Aug 22:18:38 22:20:15 13° 118° (ESE) 22:21:59 437.345 MHz
Saudisat 1A 27 Aug 22:32:28 22:36:50 68° 63° (ENE) 22:41:15 436.775 MHz
KITSAT 1 27 Aug 23:03:48 23:11:41 61° 68° (ENE) 23:19:38 435.175 FM
MaSat-1 27 Aug 23:54:20 23:57:08 26° 290° (WNW) 00:00:16 437.345 MHz
Saudisat 1A 28 Aug 00:14:51 00:16:52 13° 226° (SW) 00:18:54 436.775 MHz
PCSat 28 Aug 00:56:36 00:58:51 12° 133° (SE) 01:01:05 145.825 MHz
JAS-1B 28 Aug 00:59:33 01:05:55 21° 87° (E) 01:12:41 435.800 - 435.900 CW/SSB
KITSAT 1 28 Aug 01:00:41 01:07:31 30° 229° (SW) 01:14:25 435.175 FM
Oscar 19 28 Aug 01:09:28 01:14:14 36° 82° (E) 01:18:57 437.125 CW, 437.150 USB
ITAMSAT 1 28 Aug 01:34:46 01:39:13 27° 84° (E) 01:43:37 435.822 SSB
Oscar 16 28 Aug 01:43:28 01:48:41 85° 77° (ENE) 01:53:50 437.025 USB, Beacon 2401.1428
Uribyol 2 28 Aug 01:45:17 01:50:09 37° 82° (E) 01:54:55 436.500 FM
AO-Echo 28 Aug 02:01:30 02:06:51 61° 79° (E) 02:12:05 ?
AO-27 28 Aug 02:02:23 02:07:34 53° 80° (E) 02:12:40 436.795 MHz FM
Sapphire 28 Aug 02:07:54 02:13:06 44° 121° (ESE) 02:18:15 437.095 MHz 1200 baud AX-25 AFSK
Gurwin Techsat 1B 28 Aug 02:12:49 02:17:25 29° 84° (E) 02:21:58 435.225 FM
PCSat 28 Aug 02:37:34 02:43:02 89° 115° (ESE) 02:48:26 145.825 MHz
JAS-1B 28 Aug 02:48:08 02:56:45 81° 254° (WSW) 03:06:29 435.800 - 435.900 CW/SSB
Oscar 19 28 Aug 02:49:19 02:53:19 23° 247° (WSW) 02:57:18 437.125 CW, 437.150 USB
OPAL 28 Aug 03:02:58 03:07:31 33° 112° (ESE) 03:12:04 ?
TMSAT-1 28 Aug 03:05:53 03:11:15 70° 78° (ENE) 03:16:33 436.925 FM
ITAMSAT 1 28 Aug 03:14:02 03:18:39 31° 249° (WSW) 03:23:12 435.822 SSB
Uribyol 2 28 Aug 03:25:16 03:29:21 23° 247° (WSW) 03:33:24 436.500 FM
Oscar 16 28 Aug 03:26:43 03:27:14 10° 241° (WSW) 03:27:46 437.025 USB, Beacon 2401.1428
SO-50 28 Aug 03:40:04 03:44:55 82° 62° (ENE) 03:49:45 436.795 FM
AO-Echo 28 Aug 03:41:55 03:45:01 16° 244° (WSW) 03:48:06 ?
AO-27 28 Aug 03:43:16 03:46:35 17° 244° (WSW) 03:49:52 436.795 MHz FM
Sapphire 28 Aug 03:52:11 03:56:09 21° 286° (WNW) 04:00:06 437.095 MHz 1200 baud AX-25 AFSK
Gurwin Techsat 1B 28 Aug 03:52:38 03:57:18 31° 249° (WSW) 04:01:55 435.225 FM
AO-7 28 Aug 03:57:56 04:05:57 46° 79° (E) 04:13:52 29.400 - 29.500 MHz
UOSAT-12 28 Aug 04:19:44 04:21:50 13° 72° (ENE) 04:23:55 437.025 FM, 437.400 FM
Uosat F 28 Aug 04:28:05 04:33:14 82° 77° (ENE) 04:38:18 435.120 FM
JAS-1B 28 Aug 04:41:15 04:46:14 17° 239° (WSW) 04:51:34 435.800 - 435.900 CW/SSB
OPAL 28 Aug 04:42:08 04:46:21 26° 278° (W) 04:50:36 ?
STRAND 1 28 Aug 04:44:44 04:46:25 12° 118° (ESE) 04:48:06 ?
TMSAT-1 28 Aug 04:48:01 04:50:30 13° 243° (WSW) 04:52:59 436.925 FM
JAS-2 28 Aug 04:56:24 05:02:26 24° 89° (E) 05:08:07 435.800 - 435.900 CW/SSB, 435.910 FM
SO-50 28 Aug 05:23:56 05:26:03 13° 225° (SW) 05:28:10 436.795 FM
AO-7 28 Aug 05:51:00 05:58:28 37° 243° (WSW) 06:05:54 29.400 - 29.500 MHz
UOSAT-12 28 Aug 05:57:06 06:01:30 52° 238° (WSW) 06:05:51 437.025 FM, 437.400 FM
Hamsat 28 Aug 05:58:37 06:02:53 74° 79° (ENE) 06:07:07 145.90 MHz
Uosat F 28 Aug 06:10:17 06:11:15 11° 241° (WSW) 06:12:14 435.120 FM
STRAND 1 28 Aug 06:19:43 06:24:52 77° 283° (WNW) 06:30:06 ?
JAS-2 28 Aug 06:40:05 06:47:52 62° 252° (WSW) 06:55:04 435.800 - 435.900 CW/SSB, 435.910 FM
KITSAT 1 28 Aug 07:01:49 07:07:12 19° 138° (SE) 07:12:33 435.175 FM
Saudisat 1A 28 Aug 07:02:53 07:06:24 23° 129° (SE) 07:09:54 436.775 MHz
RS-15 28 Aug 07:04:38 07:16:17 62° 69° (ENE) 07:28:16 29.354 - 29.394 USB, Beacon 29.352 USB
SO-67 28 Aug 07:19:24 07:22:57 80° 258° (WSW) 07:26:27 435.3500 MHz FM
JAS-2 28 Aug 08:29:25 08:31:12 11° 234° (SW) 08:32:58 435.800 - 435.900 CW/SSB, 435.910 FM
Saudisat 1A 28 Aug 08:42:02 08:46:01 33° 293° (WNW) 08:49:58 436.775 MHz
HO-68 28 Aug 08:46:20 08:53:19 49° 79° (E) 09:00:11 435.675 MHz FM
KITSAT 1 28 Aug 08:55:41 09:03:52 82° 118° (ESE) 09:11:59 435.175 FM
UKube-1 28 Aug 09:08:00 09:12:09 38° 81° (E) 09:16:14 145.840 MHz, 145.915 MHz
Oscar 11 28 Aug 09:17:20 09:21:12 30° 83° (E) 09:25:01 145.825 FM, Beacon 2401.500 USB
RS-15 28 Aug 09:18:13 09:29:20 40° 227° (SW) 09:40:44 29.354 - 29.394 USB, Beacon 29.352 USB
FUNcube-1 28 Aug 09:36:13 09:39:07 18° 86° (E) 09:41:58 145.950 - 145.970 MHz USB
ISS 28 Aug 09:50:21 09:53:15 27° 50° (NE) 09:56:12 145.800 FM
HO-68 28 Aug 10:34:38 10:40:38 29° 243° (WSW) 10:46:36 435.675 MHz FM
UKube-1 28 Aug 10:45:12 10:48:00 17° 247° (WSW) 10:50:47 145.840 MHz, 145.915 MHz
KITSAT 1 28 Aug 10:53:20 10:58:16 18° 282° (WNW) 11:03:12 435.175 FM
Oscar 11 28 Aug 10:53:59 10:57:09 20° 249° (WSW) 11:00:17 145.825 FM, Beacon 2401.500 USB
FUNcube-1 28 Aug 11:11:44 11:15:34 31° 251° (WSW) 11:19:18 145.950 - 145.970 MHz USB
PANSAT 28 Aug 11:11:46 11:12:43 11° 22° (NNE) 11:13:39 not established
ISS 28 Aug 11:27:02 11:29:58 26° 214° (SW) 11:32:55 145.800 FM
RS-15 28 Aug 11:40:22 11:46:51 15° 195° (SSW) 11:53:21 29.354 - 29.394 USB, Beacon 29.352 USB
SO-50 28 Aug 12:15:39 12:19:38 29° 127° (SE) 12:23:32 436.795 FM
Oscar 19 28 Aug 12:23:07 12:27:53 38° 109° (ESE) 12:32:40 437.125 CW, 437.150 USB
PANSAT 28 Aug 12:49:06 12:52:19 25° 11° (N) 12:55:31 not established
ITAMSAT 1 28 Aug 12:49:35 12:54:06 30° 111° (ESE) 12:58:41 435.822 SSB
Oscar 16 28 Aug 12:57:00 13:02:12 88° 104° (ESE) 13:07:26 437.025 USB, Beacon 2401.1428
Uribyol 2 28 Aug 12:59:50 13:04:43 41° 109° (ESE) 13:09:40 436.500 FM
AO-Echo 28 Aug 13:11:09 13:15:55 53° 107° (ESE) 13:20:54 ?
AO-27 28 Aug 13:17:10 13:22:17 58° 107° (ESE) 13:27:29 436.795 MHz FM
Gurwin Techsat 1B 28 Aug 13:30:40 13:35:23 33° 110° (ESE) 13:40:09 435.225 FM
JAS-1B 28 Aug 13:31:38 13:37:14 63° 108° (ESE) 13:43:27 435.800 - 435.900 CW/SSB
MaSat-1 28 Aug 13:41:56 13:44:12 23° 244° (WSW) 13:46:21 437.345 MHz
SO-50 28 Aug 13:56:23 14:00:02 25° 291° (WNW) 14:03:38 436.795 FM
RS-15 28 Aug 13:59:03 14:06:49 18° 156° (SSE) 14:14:25 29.354 - 29.394 USB, Beacon 29.352 USB
Oscar 19 28 Aug 14:03:22 14:07:17 22° 275° (W) 14:11:13 437.125 CW, 437.150 USB
